[[{"header":{"parameterUnit":"m.s-1","parameterCategory":1,"la1":30.2991,"la2":30.254,"lo1":-89.0895,"lo2":-89.0444,"dy":0.0017,"dx":0.0017,"nx":28,"ny":28,"refTime":"2023-08-29T09:00:00:Z","depth":0,"parameterNumber":2,"parameterNumberName":"U-component_of_WINDS"},"data":[0,0,0,0,0,0,0,0,0,0,0,0,0,0,0,0,0,0,0,0,0,0,0,0,0,0,0,0,0,0,0,0,0,0,0,0,0,0,0,0,0,0,0,0,0,0,0,0,0,0,0,0,0,0,0,0,0,0,-1.5495,-1.5494,0,-1.5412,-1.5411,-1.541,-1.5273,-1.5271,-1.5268,-1.5266,-1.5184,-1.5184,-1.5185,0,0,0,0,0,0,0,0,0,0,0,0,0,-1.5537,-1.5537,-1.5495,-1.5494,-1.5493,-1.5412,-1.5411,-1.5409,-1.5274,-1.5271,-1.5268,-1.5265,-1.5184,-1.5184,-1.5185,0,0,0,0,0,0,0,0,0,0,0,0,0,-1.5493,-1.5537,-1.5495,-1.5415,-1.5407,-1.5412,-1.5411,-1.5409,-1.5274,-1.5271,-1.5267,-1.5263,-1.5184,-1.5184,-1.5185,-1.5262,0,0,-1.5186,-1.5186,0,0,0,0,0,0,0,0,-1.5496,-1.5491,-1.5428,-1.542,-1.5411,-1.5349,-1.5395,-1.536,-1.5275,-1.5325,-1.5266,-1.5261,-1.5242,-1.5238,-1.523,-1.5258,-1.5255,-1.5186,-1.5186,-1.5186,-1.5186,0,0,0,0,0,0,0,-1.5499,-1.5494,-1.5462,-1.5427,-1.5417,-1.5384,-1.5373,-1.5388,-1.5306,-1.532,-1.531,-1.5302,-1.5237,-1.5231,-1.5227,-1.5253,-1.5186,-1.5186,-1.5186,-1.5186,-1.5338,-1.5342,0,0,0,0,0,0,-1.5513,-1.5498,-1.5464,-1.5459,-1.5445,-1.5386,-1.5374,-1.5373,-1.5305,-1.5291,-1.5305,-1.5296,-1.5232,-1.5227,-1.5224,-1.5309,-1.5186,-1.5186,-1.5186,-1.5335,-1.5339,-1.5343,0,0,0,0,0,0,-1.5515,-1.5512,-1.5468,-1.5476,-1.5467,-1.5389,-1.5389,-1.5373,-1.5366,-1.5294,-1.5279,-1.5313,-1.5229,-1.5224,-1.5253,-1.5304,-1.5186,-1.5186,-1.533,-1.5336,-1.5341,-1.5481,0,0,0,0,0,0,-1.5516,-1.5513,-1.5541,-1.5477,-1.5468,-1.5498,-1.5392,-1.5374,-1.5367,-1.5354,-1.5298,-1.5285,-1.5225,-1.5253,-1.5253,-1.5303,-1.5187,-1.5325,-1.5333,-1.534,-1.5472,-1.5491,-1.5508,0,0,0,0,0,-1.5518,-1.5585,-1.5544,-1.554,-1.5501,-1.5501,-1.5496,-1.5425,-1.5371,-1.5399,-1.5352,-1.5287,-1.5299,-1.5257,-1.5256,-1.5307,-1.5322,-1.5331,-1.5339,-1.5463,-1.5487,-1.5507,0,0,0,0,0,0,-1.5659,-1.5575,-1.5528,-1.5576,-1.5547,-1.5478,-1.5512,-1.5453,-1.5439,-1.5428,-1.5341,-1.533,-1.537,-1.5341,-1.5296,-1.5377,-1.53,-1.5309,-1.5395,-1.5417,-1.5434,-1.5441,-1.5187,0,0,0,0,0,-1.5696,-1.5702,-1.5628,-1.5678,-1.5665,-1.5591,-1.5589,-1.5536,-1.5503,-1.549,-1.5445,-1.5416,-1.5413,-1.5413,-1.5406,-1.5466,-1.5452,-1.55,-1.5518,-1.5533,-1.5542,-1.557,-1.5591,-1.5372,-1.5372,-1.5372,0,0,-1.5772,-1.5726,-1.5736,-1.5705,-1.5676,-1.5684,-1.5582,-1.5596,-1.5601,-1.5492,-1.5517,-1.5483,-1.5444,-1.5489,-1.5507,-1.5466,-1.5599,-1.5544,-1.5557,-1.5558,-1.5582,-1.5602,-1.5621,-1.5378,-1.5377,-1.5376,0,0,-1.5914,-1.5881,-1.5917,-1.589,-1.5846,-1.5796,-1.5805,-1.5745,-1.5718,-1.574,-1.5658,-1.5664,-1.5661,-1.5636,-1.5623,-1.5754,-1.5692,-1.5754,-1.5849,-1.5877,-1.5894,-1.5909,-1.5956,-1.5973,-1.5763,-1.5763,-1.5763,0,-1.6014,-1.6023,-1.5944,-1.5962,-1.5951,-1.585,-1.5887,-1.5864,-1.5822,-1.5816,-1.5771,-1.5763,-1.573,-1.5767,-1.5799,-1.5792,-1.5799,-1.5761,-1.5898,-1.5912,-1.5925,-1.5968,-1.5986,-1.5771,-1.577,-1.5769,-1.5768,0,-1.6148,-1.6156,-1.6191,-1.615,-1.6142,-1.617,-1.6095,-1.6097,-1.6045,-1.5999,-1.6023,-1.5979,-1.5961,-1.5966,-1.5916,-1.5996,-1.5972,-1.5914,-1.5835,-1.5955,-1.5994,-1.601,-1.5782,-1.5779,-1.5777,-1.5775,0,0,-1.638,-1.6293,-1.6307,-1.6287,-1.623,-1.6235,-1.6257,-1.6238,-1.6241,-1.6214,-1.6231,-1.6229,-1.6174,-1.616,-1.6106,-1.6131,-1.6236,-1.6069,-1.6067,-1.6102,-1.632,-1.6365,-1.6386,-1.6194,-1.6197,-1.6199,-1.6324,0,-1.6511,-1.6544,-1.6472,-1.6523,-1.6529,-1.6432,-1.6451,-1.6419,-1.6377,-1.6375,-1.6328,-1.6329,-1.6256,-1.6247,-1.6267,-1.6219,-1.6279,-1.6209,-1.621,-1.6211,-1.6223,-1.6406,-1.6454,-1.6573,-1.6339,-1.6341,-1.6343,0,-1.667,-1.6649,-1.67,-1.6638,-1.6638,-1.6657,-1.6633,-1.6632,-1.6593,-1.656,-1.6543,-1.6479,-1.6496,-1.6419,-1.6442,-1.6396,-1.6392,-1.6368,-1.6371,-1.6369,-1.6285,-1.641,-1.661,-1.6628,-1.6366,-1.6364,-1.6363,0,-1.6833,-1.6818,-1.6846,-1.6832,-1.6761,-1.6777,-1.6748,-1.6705,-1.6697,-1.6676,-1.667,-1.6652,-1.6642,-1.6629,-1.6561,-1.6512,-1.6592,-1.651,-1.6566,-1.6568,-1.6589,-1.6589,-1.6792,-1.6585,-1.6585,-1.6585,-1.6584,0,-1.6988,-1.7024,-1.6919,-1.6937,-1.6972,-1.6889,-1.6927,-1.6889,-1.6851,-1.6859,-1.6774,-1.6784,-1.6693,-1.6693,-1.664,-1.6667,-1.6663,-1.6638,-1.6623,-1.6646,-1.6649,-1.6643,-1.6633,-1.6589,-1.6588,-1.6587,-1.6587,0,-1.7178,-1.711,-1.7134,-1.7064,-1.7047,-1.7077,-1.7017,-1.703,-1.6981,-1.6993,-1.699,-1.6914,-1.6909,-1.684,-1.6821,-1.6785,-1.6833,-1.6803,-1.6846,-1.6837,-1.6897,-1.6893,-1.7104,-1.7127,-1.6906,-1.6908,-1.691,0,-1.7282,-1.7307,-1.7238,-1.7237,-1.7212,-1.7212,-1.7203,-1.7121,-1.7115,-1.7071,-1.709,-1.7077,-1.7063,-1.706,-1.7003,-1.6987,-1.6956,-1.7031,-1.6954,-1.6975,-1.6958,-1.6958,-1.6959,-1.7049,-1.7051,-1.7054,-1.7056,0,-1.7474,-1.7438,-1.7428,-1.7406,-1.7397,-1.7376,-1.735,-1.7354,-1.7264,-1.7262,-1.7255,-1.7244,-1.7222,-1.7211,-1.7185,-1.7155,-1.7091,-1.708,-1.7092,-1.7116,-1.714,-1.7128,-1.6892,-1.7076,-1.7074,-1.7073,-1.7071,-1.7071,-1.7624,-1.7641,-1.7595,-1.7586,-1.7557,-1.7534,-1.7542,-1.7494,-1.7486,-1.7462,-1.7413,-1.7414,-1.7372,-1.7329,-1.7305,-1.7304,-1.7266,-1.7284,-1.7288,-1.7294,-1.7306,-1.714,-1.7299,-1.7298,-1.7298,-1.7297,-1.7296,0,-1.7812,-1.7777,-1.7769,-1.7734,-1.7727,-1.7665,-1.7632,-1.763,-1.7631,-1.7597,-1.7584,-1.7575,-1.7563,-1.7505,-1.7486,-1.7497,-1.7467,-1.7495,-1.7494,-1.7488,-1.7342,-1.7333,-1.7519,-1.7519,-1.7519,-1.7519,-1.7519,-1.7519,-1.7909,-1.7933,-1.7892,-1.79,-1.7865,-1.7863,-1.785,-1.7828,-1.78,-1.7794,-1.7783,-1.7744,-1.7699,-1.7677,-1.7663,-1.7646,-1.7643,-1.7682,-1.7655,-1.752,-1.7498,-1.7478,-1.7469,-1.7682,-1.7682,-1.7801,-1.7802,-1.7803]},{"header":{"parameterUnit":"m.s-1","parameterCategory":1,"la1":30.2991,"la2":30.254,"lo1":-89.0895,"lo2":-89.0444,"dy":0.0017,"dx":0.0017,"nx":28,"ny":28,"refTime":"2023-08-29T09:00:00:Z","depth":0,"parameterNumber":3,"parameterNumberName":"V-component_of_WINDS"},"data":[0,0,0,0,0,0,0,0,0,0,0,0,0,0,0,0,0,0,0,0,0,0,0,0,0,0,0,0,0,0,0,0,0,0,0,0,0,0,0,0,0,0,0,0,0,0,0,0,0,0,0,0,0,0,0,0,0,0,-4.3449,-4.345,0,-4.3516,-4.3517,-4.3518,-4.345,-4.3447,-4.3445,-4.3442,-4.3505,-4.3509,-4.3514,0,0,0,0,0,0,0,0,0,0,0,0,0,-4.3257,-4.3261,-4.3449,-4.345,-4.3451,-4.3516,-4.3517,-4.3518,-4.345,-4.3447,-4.3444,-4.3441,-4.3504,-4.3509,-4.3514,0,0,0,0,0,0,0,0,0,0,0,0,0,-4.3334,-4.3262,-4.3449,-4.3425,-4.3424,-4.3516,-4.3517,-4.3518,-4.3451,-4.3447,-4.3443,-4.3439,-4.3502,-4.3508,-4.3515,-4.3632,0,0,-4.3534,-4.3536,0,0,0,0,0,0,0,0,-4.3329,-4.3341,-4.3428,-4.3427,-4.3425,-4.3471,-4.3472,-4.3556,-4.3452,-4.344,-4.3442,-4.3437,-4.3497,-4.3503,-4.3524,-4.3635,-4.3638,-4.3534,-4.3538,-4.3541,-4.3542,0,0,0,0,0,0,0,-4.3324,-4.3337,-4.3476,-4.3429,-4.3428,-4.3409,-4.3416,-4.3488,-4.349,-4.3441,-4.3436,-4.3446,-4.3495,-4.3518,-4.3525,-4.3639,-4.3534,-4.354,-4.3543,-4.3546,-4.3848,-4.3852,0,0,0,0,0,0,-4.3322,-4.3333,-4.3473,-4.3478,-4.3367,-4.3416,-4.3423,-4.346,-4.3489,-4.349,-4.3449,-4.3442,-4.351,-4.3518,-4.3527,-4.3666,-4.3541,-4.3546,-4.355,-4.3844,-4.3849,-4.3854,0,0,0,0,0,0,-4.3318,-4.3335,-4.3471,-4.3404,-4.342,-4.3423,-4.3465,-4.3464,-4.3487,-4.3495,-4.3494,-4.3473,-4.3507,-4.3518,-4.3607,-4.3667,-4.3549,-4.3555,-4.3839,-4.3846,-4.3852,-4.3946,0,0,0,0,0,0,-4.3313,-4.3334,-4.3381,-4.3406,-4.3424,-4.3551,-4.3469,-4.3468,-4.3498,-4.349,-4.3517,-4.3517,-4.3505,-4.3598,-4.3613,-4.3674,-4.356,-4.3834,-4.3842,-4.385,-4.3937,-4.3954,-4.3969,0,0,0,0,0,-4.3306,-4.3403,-4.3383,-4.34,-4.3482,-4.3555,-4.3565,-4.355,-4.3503,-4.3549,-4.3554,-4.3517,-4.3659,-4.3608,-4.3624,-4.3688,-4.383,-4.384,-4.3849,-4.393,-4.3951,-4.3969,0,0,0,0,0,0,-4.3383,-4.3406,-4.3384,-4.3493,-4.3523,-4.3543,-4.36,-4.3573,-4.3615,-4.3606,-4.3583,-4.359,-4.3684,-4.3694,-4.3637,-4.3802,-4.3736,-4.375,-4.3792,-4.3812,-4.3828,-4.3823,-4.3565,0,0,0,0,0,-4.3413,-4.3472,-4.3488,-4.3582,-4.3599,-4.3597,-4.3628,-4.3614,-4.3643,-4.3655,-4.3667,-4.3695,-4.3746,-4.378,-4.3827,-4.3938,-4.3942,-4.399,-4.4006,-4.4019,-4.4031,-4.409,-4.4111,-4.3886,-4.3886,-4.3886,0,0,-4.3474,-4.3494,-4.3533,-4.3598,-4.362,-4.3679,-4.3608,-4.3674,-4.3718,-4.3665,-4.3749,-4.3759,-4.3788,-4.3889,-4.3934,-4.3901,-4.4094,-4.4032,-4.4042,-4.4047,-4.4102,-4.4123,-4.4142,-4.3892,-4.3891,-4.389,0,0,-4.3617,-4.3639,-4.3719,-4.3743,-4.3777,-4.3775,-4.3795,-4.382,-4.3825,-4.3909,-4.387,-4.3921,-4.4009,-4.4032,-4.4055,-4.4207,-4.4173,-4.4222,-4.4306,-4.4364,-4.4381,-4.4397,-4.445,-4.4469,-4.4234,-4.4234,-4.4234,0,-4.3689,-4.3779,-4.3763,-4.3833,-4.3862,-4.3819,-4.3899,-4.3921,-4.3969,-4.3989,-4.3952,-4.4062,-4.4079,-4.4183,-4.422,-4.4241,-4.4261,-4.4219,-4.4381,-4.4396,-4.441,-4.446,-4.4481,-4.424,-4.4239,-4.4239,-4.4238,0,-4.3865,-4.3928,-4.3989,-4.4038,-4.4073,-4.4148,-4.4142,-4.4179,-4.4162,-4.4164,-4.425,-4.4269,-4.4319,-4.4343,-4.4326,-4.4445,-4.4424,-4.4384,-4.4317,-4.4438,-4.4484,-4.4504,-4.4248,-4.4246,-4.4244,-4.4243,0,0,-4.4057,-4.4097,-4.4119,-4.4141,-4.4175,-4.4223,-4.4294,-4.4345,-4.4377,-4.4411,-4.447,-4.4546,-4.4509,-4.4535,-4.4521,-4.4571,-4.4689,-4.4525,-4.4525,-4.4554,-4.482,-4.4849,-4.4871,-4.4667,-4.4671,-4.4674,-4.4817,0,-4.42,-4.4327,-4.4315,-4.4434,-4.4492,-4.4451,-4.4513,-4.454,-4.4543,-4.4591,-4.4594,-4.4648,-4.4596,-4.4612,-4.466,-4.4664,-4.4742,-4.4654,-4.472,-4.4722,-4.4713,-4.4896,-4.4927,-4.5061,-4.4835,-4.4838,-4.484,0,-4.4384,-4.4426,-4.4552,-4.4578,-4.4601,-4.4658,-4.4703,-4.475,-4.4778,-4.4777,-4.4807,-4.4784,-4.4854,-4.4786,-4.4881,-4.4822,-4.4848,-4.4854,-4.4859,-4.4864,-4.4788,-4.4905,-4.5104,-4.5124,-4.4869,-4.4867,-4.4865,0,-4.4511,-4.4599,-4.4685,-4.4705,-4.4737,-4.4777,-4.4792,-4.4818,-4.4849,-4.4887,-4.4907,-4.4953,-4.4978,-4.5013,-4.5002,-4.4954,-4.5099,-4.5031,-4.5099,-4.5099,-4.513,-4.5129,-4.5335,-4.5149,-4.5149,-4.5148,-4.5148,0,-4.4671,-4.4749,-4.4743,-4.4796,-4.4882,-4.4866,-4.4951,-4.496,-4.4983,-4.5036,-4.5003,-4.5053,-4.5035,-4.5084,-4.5075,-4.5155,-4.5166,-4.5166,-4.5163,-4.5169,-4.5169,-4.5185,-4.5175,-4.5154,-4.5152,-4.5151,-4.5151,0,-4.4827,-4.4826,-4.4917,-4.4941,-4.4948,-4.501,-4.5029,-4.5078,-4.5079,-4.5146,-4.5161,-4.5162,-4.5217,-4.521,-4.5271,-4.5265,-4.5364,-4.535,-4.5355,-4.5351,-4.5419,-4.5413,-4.5643,-4.5672,-4.5468,-4.547,-4.5472,0,-4.4929,-4.4989,-4.5019,-4.5053,-4.5071,-4.5126,-4.5158,-4.5144,-4.5179,-4.5216,-4.526,-4.5313,-4.5354,-4.5444,-4.5449,-4.5495,-4.5481,-4.5558,-4.5487,-4.5492,-4.5481,-4.5477,-4.5483,-4.5572,-4.5574,-4.5576,-4.5578,0,-4.511,-4.5107,-4.5155,-4.5204,-4.5243,-4.528,-4.5314,-4.5343,-4.5332,-4.5372,-4.5429,-4.5461,-4.5524,-4.5576,-4.562,-4.5633,-4.5603,-4.56,-4.5618,-4.5625,-4.5625,-4.5625,-4.5392,-4.5595,-4.5593,-4.5592,-4.5591,-4.559,-4.5241,-4.5292,-4.5322,-4.5376,-4.5401,-4.5433,-4.548,-4.5487,-4.5535,-4.5587,-4.5575,-4.5639,-4.5665,-4.5721,-4.5739,-4.5788,-4.5759,-4.5785,-4.5792,-4.5798,-4.5806,-4.5618,-4.5795,-4.5795,-4.5794,-4.5794,-4.5794,0,-4.542,-4.5437,-4.5488,-4.5536,-4.5579,-4.555,-4.5585,-4.5622,-4.568,-4.5708,-4.575,-4.5815,-4.5865,-4.5874,-4.5922,-4.5959,-4.5946,-4.5972,-4.5968,-4.5971,-4.5829,-4.5809,-4.5981,-4.5981,-4.5981,-4.5981,-4.5981,-4.5981,-4.5518,-4.5602,-4.5602,-4.5697,-4.5713,-4.5777,-4.58,-4.5829,-4.5851,-4.5926,-4.5968,-4.5974,-4.5994,-4.6043,-4.6087,-4.6089,-4.6107,-4.6138,-4.6134,-4.6,-4.5982,-4.5964,-4.5944,-4.6142,-4.6142,-4.6271,-4.6273,-4.6274]}]]